Location: Chandler
(33.3060°N, 111.8410°W)
Time: 05:01:02
(UTC-07:00)

Amateur Radio Satellites - All Passes

Search period start: 21 August 2017 04:31
Search period end: 22 August 2017 04:31
Location: Chandler, 33.3060°N, 111.8410°W

Satellite Date Start Highest point End Downlink Frequencies (MHz)
Time Altitude Azimuth
DOVE 4 21 Aug 04:50:20 04:52:50 15° 92° (E) 04:55:16 437.250
STARS 21 Aug 04:50:25 04:54:31 39° 73° (ENE) 04:58:37 437.465
YUBILEINY 21 Aug 05:07:21 05:12:07 16° 280° (W) 05:16:54 435.215
AO-85 21 Aug 05:20:10 05:24:00 47° 301° (WNW) 05:27:47 145.980
BEESAT 3 21 Aug 05:22:08 05:25:33 27° 305° (NW) 05:29:02 437.485
ITAMSAT 1 21 Aug 05:22:35 05:25:40 16° 295° (WNW) 05:28:46 435.822/435.867
LilacSat-2 21 Aug 05:25:32 05:26:24 11° 93° (E) 05:27:16 437.200
XW-2D 21 Aug 05:28:58 05:30:16 11° 93° (E) 05:31:33 145.860 - 145.880
BEESAT 2 21 Aug 05:35:51 05:39:47 63° 300° (WNW) 05:43:47 435.950
XW-2B 21 Aug 05:39:06 05:41:24 15° 94° (E) 05:43:42 145.730 - 145.750
AO-7 21 Aug 05:40:53 05:47:22 26° 300° (WNW) 05:53:51 .
KKS-1 21 Aug 05:50:35 05:53:17 16° 266° (W) 05:55:59 437.445
CUTE-I 21 Aug 05:53:10 05:57:18 23° 96° (E) 06:01:26 437.470
XW-2C 21 Aug 05:57:18 06:00:37 27° 97° (E) 06:03:55 145.795 - 145.815
XW-2F 21 Aug 06:08:59 06:12:33 36° 98° (E) 06:16:06 145.980 - 146.000
DOVE 4 21 Aug 06:26:36 06:30:41 35° 288° (WNW) 06:34:34 437.250
STARS 21 Aug 06:28:31 06:30:56 14° 266° (W) 06:33:22 437.465
KAITUO 1B 21 Aug 06:33:26 06:37:13 63° 101° (E) 06:40:58 145.475/437.950
CUTE 1.7 + AOD 2 21 Aug 06:38:44 06:41:04 14° 93° (E) 06:43:24 437.475
STRAND 1 21 Aug 06:40:23 06:45:09 41° 72° (ENE) 06:49:56 437.568
SO-50 21 Aug 06:46:33 06:48:40 13° 48° (NE) 06:50:48 436.795
PCSat 21 Aug 06:47:25 06:51:08 18° 52° (NE) 06:54:48 145.827
HO-68 21 Aug 06:54:34 07:00:48 32° 97° (E) 07:07:00 435.675
CUBEBUG 2 21 Aug 06:54:56 06:55:17 10° 93° (E) 06:55:38 437.445
LilacSat-2 21 Aug 06:57:10 07:00:48 39° 285° (WNW) 07:04:25 437.200
XW-2D 21 Aug 07:01:00 07:04:32 36° 286° (WNW) 07:08:04 145.860 - 145.880
NUDT-PHONESAT 21 Aug 07:05:48 07:09:24 45° 284° (WNW) 07:12:59 437.300
XW-2B 21 Aug 07:12:16 07:15:33 27° 287° (WNW) 07:18:50 145.730 - 145.750
SEEDS 21 Aug 07:24:37 07:28:24 31° 97° (E) 07:32:11 437.485
XW-2C 21 Aug 07:32:10 07:34:32 16° 290° (WNW) 07:36:54 145.795 - 145.815
CUTE-I 21 Aug 07:32:33 07:37:21 35° 289° (WNW) 07:42:08 437.470
FO-29 21 Aug 07:39:34 07:44:27 19° 65° (ENE) 07:49:05 435.910
XW-2F 21 Aug 07:44:48 07:46:17 12° 292° (WNW) 07:47:47 145.980 - 146.000
AO-73 21 Aug 07:45:58 07:47:17 11° 93° (E) 07:48:36 145.935
NO-84 21 Aug 07:59:36 08:02:05 22° 43° (NE) 08:04:45 435.350 FM
XW-2A 21 Aug 08:01:28 08:04:52 84° 101° (ESE) 08:08:17 145.665 - 145.685
ISS 21 Aug 08:04:06 08:05:19 12° 126° (SE) 08:06:32 437.550
AAUSAT CUBESAT 2 21 Aug 08:08:43 08:12:45 45° 99° (E) 08:16:44 437.432
nSIGHT-1 21 Aug 08:11:08 08:13:07 15° 127° (SE) 08:15:07 .
CUTE 1.7 + AOD 2 21 Aug 08:13:02 08:16:59 37° 287° (WNW) 08:20:56 437.475
UWE-3 21 Aug 08:19:41 08:23:56 68° 101° (E) 08:28:18 435.000/436.395/437.385
STRAND 1 21 Aug 08:20:56 08:24:26 18° 265° (W) 08:27:56 437.568
Tancredo 1 21 Aug 08:22:36 08:25:29 68° 318° (NW) 08:28:23 437.200
SO-50 21 Aug 08:24:59 08:29:32 66° 243° (WSW) 08:34:06 436.795
CUBEBUG 2 21 Aug 08:28:00 08:32:05 50° 284° (WNW) 08:36:17 437.445
Oscar 11 21 Aug 08:28:33 08:32:16 27° 97° (E) 08:35:58 .
PCSat 21 Aug 08:29:33 08:34:50 55° 249° (WSW) 08:40:05 145.827
HO-68 21 Aug 08:41:55 08:48:30 41° 292° (WNW) 08:55:06 435.675
O/OREOS (USA 219) 21 Aug 08:43:06 08:47:18 43° 105° (ESE) 08:51:32 437.305
PRISM 21 Aug 08:54:26 08:56:50 15° 68° (ENE) 08:59:12 437.425
UNISAT 6 21 Aug 08:56:00 08:59:29 24° 71° (ENE) 09:02:56 437.425
ZACube-1 21 Aug 08:58:27 09:02:46 78° 282° (WNW) 09:07:10 437.345
SEEDS 21 Aug 09:01:00 09:03:48 17° 291° (WNW) 09:06:36 437.485
DELFI C3 21 Aug 09:11:26 09:14:04 17° 95° (E) 09:16:42 145.870
AO-73 21 Aug 09:19:31 09:23:41 48° 285° (WNW) 09:27:55 145.935
FO-29 21 Aug 09:21:08 09:28:51 75° 257° (WSW) 09:35:58 435.910
TIGRISAT 21 Aug 09:30:05 09:34:20 56° 75° (ENE) 09:38:32 435.000
NO-84 21 Aug 09:36:48 09:39:25 22° 234° (SW) 09:42:12 435.350 FM
ISS 21 Aug 09:38:16 09:41:26 47° 319° (NW) 09:44:38 437.550
JUGNU 21 Aug 09:39:42 09:43:10 16° 168° (SSE) 09:46:39 437.505
EO-88 21 Aug 09:45:15 09:48:19 25° 97° (E) 09:51:23 145.990 - 145.960
nSIGHT-1 21 Aug 09:46:12 09:49:15 36° 321° (NW) 09:52:18 .
AAUSAT CUBESAT 2 21 Aug 09:46:14 09:47:44 12° 293° (WNW) 09:49:14 437.432
M-CUBED/EXP-1 PRIME 21 Aug 09:47:30 09:49:16 12° 60° (ENE) 09:51:02 437.505
Oscar 11 21 Aug 10:04:57 10:08:12 21° 290° (WNW) 10:11:26 .
RS-15 21 Aug 10:11:26 10:23:06 57° 110° (ESE) 10:35:01 29.354- 29.394
O/OREOS (USA 219) 21 Aug 10:24:26 10:26:54 14° 300° (WNW) 10:29:22 437.305
Max Valier Satellite 21 Aug 10:25:22 10:29:02 60° 284° (WNW) 10:32:41 145.860
PRISM 21 Aug 10:27:57 10:31:45 35° 262° (W) 10:35:35 437.425
UNISAT 6 21 Aug 10:32:38 10:36:05 23° 264° (W) 10:39:30 437.425
AIST 2D 21 Aug 10:40:25 10:43:37 36° 75° (ENE) 10:46:51 435.315
DELFI C3 21 Aug 10:45:28 10:48:48 26° 288° (WNW) 10:52:05 145.870
NANOSAT C BR1 21 Aug 10:57:00 11:00:16 22° 71° (ENE) 11:03:33 145.865
POLYITAN 1 21 Aug 11:01:48 11:05:26 29° 72° (ENE) 11:09:03 437.675
ESTCUBE 1 21 Aug 11:09:48 11:13:28 24° 96° (E) 11:17:05 437.505/2401.250
LO-87 21 Aug 11:13:11 11:16:31 39° 99° (E) 11:19:50 145.935 - 145.965
QB50P2 21 Aug 11:16:28 11:20:31 49° 75° (ENE) 11:24:35 145.880/145.840
EO-79 21 Aug 11:17:02 11:21:02 45° 74° (ENE) 11:25:02 145.935-145.965
M-CUBED/EXP-1 PRIME 21 Aug 11:18:39 11:23:01 62° 255° (WSW) 11:27:37 437.505
EO-88 21 Aug 11:19:31 11:21:44 15° 290° (WNW) 11:23:56 145.990 - 145.960
JUGNU 21 Aug 11:27:07 11:31:32 22° 178° (S) 11:35:55 437.505
SRMSAT 21 Aug 11:41:36 11:43:36 12° 164° (SSE) 11:45:36 437.500
BUGSAT 1 21 Aug 11:45:34 11:48:24 18° 70° (ENE) 11:51:14 437.445
DUCHIFAT 1 21 Aug 11:46:11 11:50:21 82° 77° (ENE) 11:54:32 145.980
Oscar 19 21 Aug 11:58:08 12:00:39 14° 64° (ENE) 12:03:10 437.125/150
RS-15 21 Aug 12:24:39 12:35:57 42° 311° (NW) 12:47:28 29.354- 29.394
NANOSAT C BR1 21 Aug 12:32:31 12:35:50 23° 264° (W) 12:39:10 145.865
POLYITAN 1 21 Aug 12:38:21 12:41:11 18° 265° (W) 12:44:01 437.675
ESTCUBE 1 21 Aug 12:46:24 12:50:09 26° 289° (WNW) 12:53:53 437.505/2401.250
VELOX 1 21 Aug 12:49:51 12:54:13 61° 101° (E) 12:58:33 145.980
DX 1 21 Aug 12:51:06 12:53:36 15° 94° (E) 12:56:05 434.975-435.025
SPROUT 21 Aug 12:53:02 12:57:17 89° 281° (WNW) 13:01:31 437.525
EO-79 21 Aug 12:55:40 12:56:57 11° 267° (W) 12:58:15 145.935-145.965
QB50P2 21 Aug 12:56:11 12:56:31 10° 268° (W) 12:56:52 145.880/145.840
Gurwin Techsat 1B 21 Aug 13:13:13 13:18:21 52° 73° (ENE) 13:23:30 435.225
JUGNU 21 Aug 13:15:50 13:19:54 19° 188° (S) 13:23:57 437.505
BUGSAT 1 21 Aug 13:20:04 13:23:32 27° 262° (W) 13:27:00 437.445
SRMSAT 21 Aug 13:27:56 13:32:05 20° 173° (S) 13:36:13 437.500
50 SAT 21 Aug 13:28:13 13:31:34 68° 100° (E) 13:34:53 437.505
Oscar 19 21 Aug 13:34:19 13:39:23 60° 259° (W) 13:44:30 437.125/150
BEESAT 3 21 Aug 13:42:05 13:45:52 42° 58° (ENE) 13:49:35 437.485
AO-85 21 Aug 13:54:13 13:58:21 39° 58° (ENE) 14:02:47 145.980
BEESAT 2 21 Aug 13:57:54 14:00:57 20° 53° (NE) 14:03:58 435.950
UKube-1 21 Aug 14:02:33 14:06:51 72° 102° (ESE) 14:11:07 .
YUBILEINY 21 Aug 14:10:41 14:15:57 18° 80° (E) 14:21:11 435.215
DX 1 21 Aug 14:25:52 14:29:51 36° 288° (WNW) 14:33:49 434.975-435.025
AO-7 21 Aug 14:41:05 14:49:13 59° 68° (ENE) 14:57:22 .
RS-15 21 Aug 14:47:37 14:53:19 14° 341° (NNW) 14:59:00 29.354- 29.394
BEESAT 21 Aug 14:47:44 14:51:20 21° 96° (E) 14:54:55 436.000
Tancredo 1 21 Aug 14:49:15 14:50:59 15° 33° (NNE) 14:52:43 437.200
ITAMSAT 1 21 Aug 14:55:23 15:00:26 52° 73° (ENE) 15:05:28 435.822/435.867
Gurwin Techsat 1B 21 Aug 14:55:26 14:58:31 15° 267° (W) 15:01:36 435.225
JUGNU 21 Aug 15:06:52 15:08:13 11° 197° (SSW) 15:09:33 437.505
SRMSAT 21 Aug 15:16:16 15:20:36 21° 183° (S) 15:24:57 437.500
BEESAT 3 21 Aug 15:21:37 15:22:59 12° 252° (WSW) 15:24:20 437.485
ITUPSAT 1 21 Aug 15:21:43 15:26:22 50° 100° (E) 15:31:00 437.325
BEESAT 2 21 Aug 15:35:13 15:38:39 27° 248° (WSW) 15:42:04 435.950
AO-85 21 Aug 15:35:29 15:38:30 18° 249° (WSW) 15:41:40 145.980
DOVE 4 21 Aug 15:51:40 15:54:07 13° 66° (ENE) 15:56:33 437.250
MOZHAYETS 4 21 Aug 16:01:34 16:06:08 64° 284° (WNW) 16:10:42
YUBILEINY 21 Aug 16:02:51 16:11:40 78° 277° (W) 16:20:27 435.215
ISS 21 Aug 16:09:34 16:12:20 25° 37° (NE) 16:15:06 437.550
nSIGHT-1 21 Aug 16:16:49 16:19:45 31° 38° (NE) 16:22:40 .
Tancredo 1 21 Aug 16:23:35 16:26:16 36° 228° (SW) 16:28:56 437.200
CUBESAT XI-V 21 Aug 16:23:35 16:28:01 39° 99° (E) 16:32:24 437.345
BEESAT 21 Aug 16:24:53 16:29:05 32° 289° (WNW) 16:33:16 436.000
AO-7 21 Aug 16:35:37 16:42:15 26° 263° (W) 16:48:57 .
ITAMSAT 1 21 Aug 16:37:12 16:40:06 15° 266° (W) 16:43:02 435.822/435.867
ITUPSAT 1 21 Aug 17:01:12 17:03:43 14° 294° (WNW) 17:06:14 437.325
SRMSAT 21 Aug 17:05:52 17:09:06 15° 193° (SSW) 17:12:20 437.500
RS-15 21 Aug 17:07:45 17:13:50 15° 21° (NNE) 17:19:47 29.354- 29.394
KAITUO 1B 21 Aug 17:10:31 17:12:43 15° 70° (ENE) 17:14:57 145.475/437.950
CUTE-I 21 Aug 17:10:54 17:15:16 26° 68° (ENE) 17:19:38 437.470
HO-68 21 Aug 17:21:20 17:25:13 16° 59° (ENE) 17:29:04 435.675
DOVE 4 21 Aug 17:25:56 17:31:11 66° 259° (W) 17:36:23 437.250
LilacSat-2 21 Aug 17:34:26 17:38:03 48° 76° (ENE) 17:41:44 437.200
XW-2D 21 Aug 17:37:31 17:41:09 51° 76° (ENE) 17:44:50 145.860 - 145.880
NUDT-PHONESAT 21 Aug 17:40:37 17:44:00 37° 74° (ENE) 17:47:24 437.300
KKS-1 21 Aug 17:43:33 17:47:54 59° 285° (WNW) 17:52:14 437.445
ISS 21 Aug 17:46:05 17:48:43 23° 231° (SW) 17:51:20 437.550
XW-2B 21 Aug 17:48:30 17:52:13 72° 77° (ENE) 17:55:59 145.730 - 145.750
nSIGHT-1 21 Aug 17:53:43 17:55:56 17° 232° (SW) 17:58:09 .
CUBESAT XI-V 21 Aug 18:01:58 18:05:00 17° 292° (WNW) 18:08:02 437.345
YUBILEINY 21 Aug 18:06:49 18:09:50 12° 295° (WNW) 18:12:50 435.215
XW-2C 21 Aug 18:07:41 18:11:22 58° 260° (W) 18:15:05 145.795 - 145.815
SEEDS 21 Aug 18:13:41 18:15:40 13° 68° (ENE) 18:17:40 437.485
XW-2F 21 Aug 18:19:15 18:22:47 42° 261° (W) 18:26:22 145.980 - 146.000
STARS 21 Aug 18:19:37 18:23:54 57° 285° (WNW) 18:28:09 437.465
XW-2A 21 Aug 18:30:14 18:31:47 13° 70° (ENE) 18:33:20 145.665 - 145.685
KAITUO 1B 21 Aug 18:43:21 18:46:27 25° 263° (W) 18:49:36 145.475/437.950
CUTE-I 21 Aug 18:50:21 18:55:06 32° 262° (W) 18:59:53 437.470
AAUSAT CUBESAT 2 21 Aug 18:55:29 18:58:16 18° 70° (ENE) 19:01:05 437.432
STRAND 1 21 Aug 18:55:49 18:59:28 20° 95° (E) 19:03:06 437.568
O/OREOS (USA 219) 21 Aug 18:57:00 19:01:20 42° 67° (ENE) 19:05:39 437.305
CUTE 1.7 + AOD 2 21 Aug 19:00:41 19:04:55 86° 74° (ENE) 19:09:10 437.475
HO-68 21 Aug 19:04:49 19:11:59 85° 255° (WSW) 19:19:11 435.675
UWE-3 21 Aug 19:12:52 19:16:33 30° 73° (ENE) 19:20:12 435.000/436.395/437.385
RS-15 21 Aug 19:19:18 19:30:42 46° 51° (NE) 19:41:27 29.354- 29.394
Oscar 11 21 Aug 19:20:52 19:22:48 13° 67° (ENE) 19:24:44 .
CUBEBUG 2 21 Aug 19:21:31 19:25:48 76° 77° (ENE) 19:30:01 437.445
SEEDS 21 Aug 19:46:59 19:50:56 41° 261° (W) 19:54:56 437.485
ZACube-1 21 Aug 19:50:06 19:54:03 44° 75° (ENE) 19:58:00 437.345
XW-2A 21 Aug 20:01:32 20:04:15 23° 263° (W) 20:06:58 145.665 - 145.685
AO-73 21 Aug 20:10:30 20:14:37 73° 77° (ENE) 20:18:44 145.935
AAUSAT CUBESAT 2 21 Aug 20:29:51 20:33:27 29° 263° (W) 20:37:07 437.432
STRAND 1 21 Aug 20:34:00 20:38:42 38° 289° (WNW) 20:43:23 437.568
O/OREOS (USA 219) 21 Aug 20:37:55 20:40:18 14° 261° (W) 20:42:41 437.305
FO-29 21 Aug 20:38:39 20:41:20 14° 92° (E) 20:43:57 435.910
UWE-3 21 Aug 20:50:21 20:53:01 16° 265° (W) 20:55:39 435.000/436.395/437.385
Oscar 11 21 Aug 20:54:23 20:58:29 44° 261° (W) 21:02:37 .
HO-68 21 Aug 20:58:46 21:00:28 11° 269° (W) 21:02:11 435.675
Max Valier Satellite 21 Aug 21:00:14 21:03:22 28° 73° (ENE) 21:06:31 145.860
PCSat 21 Aug 21:24:00 21:28:52 35° 109° (ESE) 21:33:45 145.827
DELFI C3 21 Aug 21:25:30 21:29:29 88° 258° (WSW) 21:33:30 145.870
TIGRISAT 21 Aug 21:26:35 21:29:15 16° 95° (E) 21:31:57 435.000
ZACube-1 21 Aug 21:29:31 21:30:30 11° 267° (W) 21:31:30 437.345
RS-15 21 Aug 21:32:02 21:43:05 48° 252° (WSW) 21:53:37 29.354- 29.394
EO-88 21 Aug 21:51:26 21:55:01 68° 259° (W) 21:58:39 145.990 - 145.960
ESTCUBE 1 21 Aug 22:06:32 22:08:49 14° 67° (ENE) 22:11:05 437.505/2401.250
PRISM 21 Aug 22:13:02 22:16:53 39° 99° (E) 22:20:43 437.425
FO-29 21 Aug 22:21:36 22:26:51 51° 288° (WNW) 22:31:50 435.910
UNISAT 6 21 Aug 22:26:55 22:31:16 84° 283° (WNW) 22:35:42 437.425
SO-50 21 Aug 22:34:57 22:39:28 75° 300° (WNW) 22:43:59 436.795
Max Valier Satellite 21 Aug 22:35:28 22:37:12 13° 266° (W) 22:38:59 145.860
TIGRISAT 21 Aug 23:02:03 23:05:59 34° 287° (WNW) 23:09:58 435.000
M-CUBED/EXP-1 PRIME 21 Aug 23:03:37 23:05:30 13° 96° (E) 23:07:18 437.505
PCSat 21 Aug 23:07:44 23:12:15 27° 304° (NW) 23:16:49 145.827
QB50P2 21 Aug 23:07:45 23:08:54 11° 93° (E) 23:10:04 145.880/145.840
NO-84 21 Aug 23:14:20 23:15:46 13° 124° (SE) 23:17:10 435.350 FM
LO-87 21 Aug 23:17:56 23:21:21 41° 261° (W) 23:24:46 145.935 - 145.965
DUCHIFAT 1 21 Aug 23:35:11 23:37:59 17° 95° (E) 23:40:46 145.980
ESTCUBE 1 21 Aug 23:40:51 23:45:09 46° 261° (W) 23:49:30 437.505/2401.250
AIST 2D 21 Aug 23:41:59 23:45:32 87° 98° (E) 23:49:06 435.315
SPROUT 21 Aug 23:42:03 23:45:59 38° 73° (ENE) 23:49:55 437.525
VELOX 1 21 Aug 23:42:56 23:46:53 32° 72° (ENE) 23:50:50 145.980
PRISM 21 Aug 23:49:51 23:51:45 13° 293° (WNW) 23:53:39 437.425
50 SAT 21 Aug 23:56:53 23:58:13 12° 69° (ENE) 23:59:33 437.505
NANOSAT C BR1 22 Aug 00:19:40 00:23:51 75° 102° (ESE) 00:28:03 145.865
POLYITAN 1 22 Aug 00:25:27 00:29:40 82° 283° (WNW) 00:33:53 437.675
M-CUBED/EXP-1 PRIME 22 Aug 00:36:08 00:40:07 39° 292° (WNW) 00:43:48 437.505
QB50P2 22 Aug 00:40:50 00:44:53 46° 285° (WNW) 00:48:55 145.880/145.840
EO-79 22 Aug 00:41:04 00:45:09 51° 285° (WNW) 00:49:13 145.935-145.965
NO-84 22 Aug 00:50:19 00:52:55 27° 316° (NW) 00:55:28 435.350 FM
UKube-1 22 Aug 00:52:50 00:56:44 34° 72° (ENE) 01:00:39 .
BUGSAT 1 22 Aug 01:04:58 01:08:55 54° 100° (E) 01:12:52 437.445
DUCHIFAT 1 22 Aug 01:10:00 01:13:37 29° 288° (WNW) 01:17:16 145.980
DX 1 22 Aug 01:16:26 01:20:48 75° 258° (WSW) 01:25:11 434.975-435.025
SPROUT 22 Aug 01:19:47 01:21:58 14° 266° (W) 01:24:10 437.525
VELOX 1 22 Aug 01:20:14 01:23:19 18° 265° (W) 01:26:25 145.980
50 SAT 22 Aug 01:27:36 01:30:33 27° 262° (W) 01:33:31 437.505
Gurwin Techsat 1B 22 Aug 01:34:02 01:38:36 29° 97° (E) 01:43:09 435.225
Oscar 19 22 Aug 01:49:58 01:55:09 68° 102° (ESE) 02:00:19 437.125/150
BEESAT 22 Aug 01:50:54 01:53:45 16° 67° (ENE) 01:56:37 436.000
YUBILEINY 22 Aug 02:18:36 02:26:47 43° 78° (ENE) 02:34:54 435.215
ITUPSAT 1 22 Aug 02:24:24 02:28:43 36° 72° (ENE) 02:33:04 437.325
UKube-1 22 Aug 02:30:06 02:32:47 16° 265° (W) 02:35:29 .
AO-7 22 Aug 02:48:37 02:54:58 24° 96° (E) 03:01:14 .
MOZHAYETS 4 22 Aug 02:58:52 03:03:23 74° 77° (ENE) 03:07:56
ITAMSAT 1 22 Aug 03:12:59 03:17:13 25° 97° (E) 03:21:26 435.822/435.867
Gurwin Techsat 1B 22 Aug 03:13:56 03:18:25 29° 291° (WNW) 03:22:54 435.225
CUBESAT XI-V 22 Aug 03:23:05 03:26:48 24° 70° (ENE) 03:30:32 437.345
BEESAT 22 Aug 03:26:37 03:31:07 43° 260° (W) 03:35:39 436.000
BEESAT 3 22 Aug 03:28:22 03:31:15 19° 110° (ESE) 03:34:09 437.485
Oscar 19 22 Aug 03:31:44 03:33:49 12° 296° (WNW) 03:35:55 437.125/150
ITUPSAT 1 22 Aug 04:03:21 04:06:36 18° 265° (W) 04:09:52 437.325
AO-85 22 Aug 04:05:25 04:08:57 30° 113° (ESE) 04:12:23 145.980
YUBILEINY 22 Aug 04:15:46 04:23:15 34° 274° (W) 04:30:46 435.215
